User: anonymous   Login
Location: Unspecified
(26.1283°N, 0.0000°E)
Time: 00:56:27
(UTC+00:00)
Language:

FORMOSAT 3C - Orbit

View from above orbital plane
View from above orbital plane
View from above satellite
View from above satellite

Ground track
Ground track

The orbit is defined by the following mean orbital elements,

1 29049U          26088.05648169 +.00000000 +00000-0 +18742-3 0 00005
2 29049  72.0189 207.7967 0034271 343.7286  16.2749 14.31340115    03
Epoch (UTC): 29 March 2026 01:21:20
Eccentricity: 0.0034271
inclination: 72.0189°
perigee height: 763 km
apogee height: 812 km
right ascension of ascending node: 207.7967°
argument of perigee: 343.7286°
revolutions per day: 14.31340115
mean anomaly at epoch: 16.2749°

The dashed part of the orbit path shows where the satellite is in the earth's shadow,  

DLR